Time,TemperatureF,DewpointF,PressureIn,WindDirection,WindDirectionDegrees,WindSpeedMPH,WindSpeedGustMPH,Humidity,HourlyPrecipIn,Conditions,Clouds,dailyrainin,SoftwareType,DateUTC
2013-07-15 00:01:00,64.4,61.7,30.23,NE,34,0.0,0.0,91,0.00,-RA,OVC,0.00,WeatherDisplay:10.37,2013-07-15 06:01:00,
2013-07-15 00:06:00,64.5,62.1,30.23,NE,34,0.0,0.0,92,0.00,-RA,OVC,0.00,WeatherDisplay:10.37,2013-07-15 06:06:00,
2013-07-15 00:11:00,64.5,62.1,30.23,NE,34,0.0,0.0,92,0.00,-RA,OVC,0.00,WeatherDisplay:10.37,2013-07-15 06:11:00,
2013-07-15 00:16:00,64.5,62.1,30.23,NE,34,0.0,0.0,92,0.00,-RA,OVC,0.00,WeatherDisplay:10.37,2013-07-15 06:16:00,
2013-07-15 00:21:00,64.6,62.2,30.23,NE,34,0.0,0.0,92,0.00,-RA,OVC,0.00,WeatherDisplay:10.37,2013-07-15 06:21:00,
2013-07-15 00:26:00,64.6,61.9,30.23,NE,34,0.0,0.0,91,0.00,-RA,OVC,0.00,WeatherDisplay:10.37,2013-07-15 06:26:00,
2013-07-15 00:31:00,64.7,62.0,30.23,NE,34,0.0,0.0,91,0.00,-RA,OVC,0.00,WeatherDisplay:10.37,2013-07-15 06:31:00,
2013-07-15 00:36:00,64.7,62.0,30.23,NE,34,0.0,0.0,91,0.00,-RA,OVC,0.00,WeatherDisplay:10.37,2013-07-15 06:36:00,
2013-07-15 00:41:00,64.7,62.0,30.23,NE,34,0.0,0.0,91,0.00,-RA,OVC,0.00,WeatherDisplay:10.37,2013-07-15 06:41:00,
2013-07-15 00:46:00,64.6,61.9,30.23,NE,34,0.0,0.0,91,0.00,-RA,OVC,0.00,WeatherDisplay:10.37,2013-07-15 06:46:00,
2013-07-15 00:51:00,64.5,61.8,30.23,NE,34,0.0,0.0,91,0.00,-RA,OVC,0.00,WeatherDisplay:10.37,2013-07-15 06:51:00,
2013-07-15 00:56:00,64.5,62.1,30.23,NE,34,0.0,0.0,92,0.00,-RA,OVC,0.00,WeatherDisplay:10.37,2013-07-15 06:56:00,
2013-07-15 01:01:00,64.4,62.0,30.23,NE,34,0.0,0.0,92,0.00,-RA,OVC,0.00,WeatherDisplay:10.37,2013-07-15 07:01:00,
2013-07-15 01:06:00,64.4,62.0,30.22,NE,34,0.0,0.0,92,0.00,-RA,OVC,0.00,WeatherDisplay:10.37,2013-07-15 07:06:00,
2013-07-15 01:11:00,64.4,62.0,30.22,NE,34,0.0,0.0,92,0.00,-RA,OVC,0.00,WeatherDisplay:10.37,2013-07-15 07:11:00,
2013-07-15 01:16:00,64.4,62.3,30.22,NNE,30,0.0,0.4,93,0.00,-RA,OVC,0.00,WeatherDisplay:10.37,2013-07-15 07:16:00,
2013-07-15 01:21:00,64.5,62.1,30.22,NNE,30,2.3,0.0,92,0.00,-RA,OVC,0.00,WeatherDisplay:10.37,2013-07-15 07:21:00,
2013-07-15 01:26:00,64.5,62.1,30.22,NNE,30,1.1,1.1,92,0.00,-RA,OVC,0.00,WeatherDisplay:10.37,2013-07-15 07:26:00,
2013-07-15 01:31:00,64.5,62.1,30.22,NNE,30,1.1,1.1,92,0.00,-RA,OVC,0.00,WeatherDisplay:10.37,2013-07-15 07:31:00,
2013-07-15 01:36:00,64.4,62.0,30.22,NNE,30,1.1,0.0,92,0.00,-RA,OVC,0.00,WeatherDisplay:10.37,2013-07-15 07:36:00,
2013-07-15 01:41:00,64.4,62.0,30.22,NNE,30,3.5,3.5,92,0.00,-RA,OVC,0.00,WeatherDisplay:10.37,2013-07-15 07:41:00,
2013-07-15 01:46:00,64.3,61.9,30.22,NNE,30,3.5,0.0,92,0.00,-RA,OVC,0.00,WeatherDisplay:10.37,2013-07-15 07:46:00,
2013-07-15 01:51:00,64.3,61.9,30.22,NNE,30,0.0,0.2,92,0.00,-RA,OVC,0.00,WeatherDisplay:10.37,2013-07-15 07:51:00,
2013-07-15 01:56:00,64.2,61.8,30.22,NNE,30,2.3,0.0,92,0.00,-RA,OVC,0.00,WeatherDisplay:10.37,2013-07-15 07:56:00,
2013-07-15 02:01:00,64.3,61.9,30.22,NNE,30,0.0,0.0,92,0.00,-RA,OVC,0.00,WeatherDisplay:10.37,2013-07-15 08:01:00,
2013-07-15 02:06:00,64.3,61.9,30.22,NNE,30,0.0,0.7,92,0.00,-RA,OVC,0.00,WeatherDisplay:10.37,2013-07-15 08:06:00,
2013-07-15 02:11:00,64.3,61.9,30.22,NNE,30,0.0,0.0,92,0.00,-RA,OVC,0.00,WeatherDisplay:10.37,2013-07-15 08:11:00,
2013-07-15 02:16:00,64.3,61.9,30.22,NNE,30,0.0,0.0,92,0.00,-RA,OVC,0.00,WeatherDisplay:10.37,2013-07-15 08:16:00,
2013-07-15 02:21:00,64.4,62.0,30.22,NNE,30,2.3,2.3,92,0.02,-RA,OVC,0.02,WeatherDisplay:10.37,2013-07-15 08:21:00,
2013-07-15 02:26:00,64.4,62.3,30.22,NNE,30,0.0,0.7,93,0.03,-RA,OVC,0.03,WeatherDisplay:10.37,2013-07-15 08:26:00,
2013-07-15 02:31:00,64.4,62.0,30.22,NNE,30,0.0,0.0,92,0.03,-RA,OVC,0.03,WeatherDisplay:10.37,2013-07-15 08:31:00,
2013-07-15 02:36:00,64.3,61.9,30.22,NNE,30,1.1,1.1,92,0.03,-RA,OVC,0.03,WeatherDisplay:10.37,2013-07-15 08:36:00,
2013-07-15 02:41:00,64.3,62.2,30.22,NNE,30,0.0,0.0,93,0.03,-RA,OVC,0.03,WeatherDisplay:10.37,2013-07-15 08:41:00,
2013-07-15 02:46:00,64.2,62.1,30.22,NNE,30,0.0,0.0,93,0.03,-RA,OVC,0.03,WeatherDisplay:10.37,2013-07-15 08:46:00,
2013-07-15 02:51:00,64.3,62.2,30.22,NNE,30,0.0,0.0,93,0.03,-RA,OVC,0.03,WeatherDisplay:10.37,2013-07-15 08:51:00,
2013-07-15 02:56:00,64.3,62.2,30.22,NNE,30,0.0,0.0,93,0.03,-RA,OVC,0.03,WeatherDisplay:10.37,2013-07-15 08:56:00,
2013-07-15 03:01:00,64.3,62.5,30.22,NNE,30,0.0,0.0,94,0.03,-RA,OVC,0.03,WeatherDisplay:10.37,2013-07-15 09:01:00,
2013-07-15 03:06:00,64.3,62.5,30.22,NNE,30,0.0,0.0,94,0.03,-RA,OVC,0.03,WeatherDisplay:10.37,2013-07-15 09:06:00,
2013-07-15 03:11:00,64.3,62.5,30.22,NNE,30,0.0,0.0,94,0.03,-RA,OVC,0.03,WeatherDisplay:10.37,2013-07-15 09:11:00,
2013-07-15 03:16:00,64.3,62.2,30.22,NNE,30,0.0,0.0,93,0.03,-RA,OVC,0.03,WeatherDisplay:10.37,2013-07-15 09:16:00,
2013-07-15 03:21:00,64.3,62.2,30.22,NE,38,0.0,0.0,93,0.01,-RA,OVC,0.03,WeatherDisplay:10.37,2013-07-15 09:21:00,
2013-07-15 03:26:00,64.3,62.2,30.22,NE,38,0.0,0.0,93,0.00,-RA,OVC,0.03,WeatherDisplay:10.37,2013-07-15 09:26:00,
2013-07-15 03:31:00,64.3,62.2,30.22,NE,38,0.0,0.0,93,0.00,-RA,OVC,0.03,WeatherDisplay:10.37,2013-07-15 09:31:00,
2013-07-15 03:36:00,64.3,62.2,30.22,NE,38,0.0,0.0,93,0.00,-RA,OVC,0.03,WeatherDisplay:10.37,2013-07-15 09:36:00,
2013-07-15 03:41:00,64.3,62.2,30.22,NE,38,0.0,0.0,93,0.00,-RA,OVC,0.03,WeatherDisplay:10.37,2013-07-15 09:41:00,
2013-07-15 03:46:00,64.3,62.5,30.22,NE,38,0.0,0.0,94,0.00,-RA,OVC,0.03,WeatherDisplay:10.37,2013-07-15 09:46:00,
2013-07-15 03:51:00,64.2,62.1,30.22,NE,38,0.0,0.1,93,0.00,-RA,OVC,0.03,WeatherDisplay:10.37,2013-07-15 09:51:00,
2013-07-15 03:56:00,64.1,62.0,30.22,NE,38,1.1,1.1,93,0.00,-RA,OVC,0.03,WeatherDisplay:10.37,2013-07-15 09:56:00,
2013-07-15 04:01:00,64.1,61.7,30.22,NE,47,0.0,0.0,92,0.00,-RA,OVC,0.03,WeatherDisplay:10.37,2013-07-15 10:01:00,
2013-07-15 04:06:00,64.1,61.7,30.22,NE,48,0.0,0.0,92,0.00,-RA,OVC,0.03,WeatherDisplay:10.37,2013-07-15 10:06:00,
2013-07-15 04:11:00,64.1,61.7,30.22,NE,47,1.0,1.0,92,0.00,-RA,OVC,0.03,WeatherDisplay:10.37,2013-07-15 10:11:00,
2013-07-15 04:16:00,64.1,61.7,30.22,ENE,58,0.0,0.5,92,0.00,-RA,OVC,0.03,WeatherDisplay:10.37,2013-07-15 10:16:00,
2013-07-15 04:21:00,64.1,61.4,30.22,ENE,58,3.5,3.5,91,0.00,-RA,OVC,0.03,WeatherDisplay:10.37,2013-07-15 10:21:00,
2013-07-15 04:26:00,64.1,61.4,30.22,ENE,58,1.1,0.0,91,0.00,-RA,OVC,0.03,WeatherDisplay:10.37,2013-07-15 10:26:00,
2013-07-15 04:31:00,64.0,61.3,30.22,ENE,58,0.0,0.0,91,0.00,-RA,OVC,0.03,WeatherDisplay:10.37,2013-07-15 10:31:00,
2013-07-15 04:36:00,63.9,61.2,30.22,ENE,58,2.3,2.3,91,0.00,-RA,OVC,0.03,WeatherDisplay:10.37,2013-07-15 10:36:00,
2013-07-15 04:41:00,63.8,61.1,30.22,ENE,58,0.0,0.0,91,0.00,-RA,OVC,0.03,WeatherDisplay:10.37,2013-07-15 10:41:00,
2013-07-15 04:46:00,63.7,61.0,30.22,ENE,58,0.0,0.0,91,0.00,-RA,OVC,0.03,WeatherDisplay:10.37,2013-07-15 10:46:00,
2013-07-15 04:51:00,63.6,60.9,30.22,ENE,58,0.0,0.0,91,0.00,-RA,OVC,0.03,WeatherDisplay:10.37,2013-07-15 10:51:00,
2013-07-15 04:56:00,63.5,61.1,30.22,ENE,58,1.0,0.0,92,0.00,-RA,OVC,0.03,WeatherDisplay:10.37,2013-07-15 10:56:00,
2013-07-15 05:01:00,63.4,61.0,30.22,ENE,58,0.0,0.0,92,0.00,-RA,OVC,0.03,WeatherDisplay:10.37,2013-07-15 11:01:00,
2013-07-15 05:07:00,63.3,60.9,30.22,ENE,58,0.0,0.0,92,0.00,-RA,OVC,0.03,WeatherDisplay:10.37,2013-07-15 11:07:00,
2013-07-15 05:12:00,63.1,60.7,30.22,ENE,58,0.0,0.0,92,0.00,-RA,OVC,0.03,WeatherDisplay:10.37,2013-07-15 11:12:00,
2013-07-15 05:17:00,63.0,60.6,30.22,ENE,58,0.0,0.0,92,0.00,-RA,OVC,0.03,WeatherDisplay:10.37,2013-07-15 11:17:00,
2013-07-15 05:22:00,62.9,60.5,30.21,ENE,58,0.0,0.0,92,0.00,-RA,OVC,0.03,WeatherDisplay:10.37,2013-07-15 11:22:00,
2013-07-15 05:27:00,62.8,60.7,30.21,ENE,58,0.0,0.0,93,0.00,-RA,OVC,0.03,WeatherDisplay:10.37,2013-07-15 11:27:00,
2013-07-15 05:32:00,62.8,60.7,30.21,ENE,58,0.0,0.0,93,0.00,-RA,OVC,0.03,WeatherDisplay:10.37,2013-07-15 11:32:00,
2013-07-15 05:37:00,62.7,60.6,30.21,ENE,58,0.0,0.0,93,0.00,-RA,OVC,0.03,WeatherDisplay:10.37,2013-07-15 11:37:00,
2013-07-15 05:42:00,62.7,60.6,30.21,ENE,58,0.0,0.0,93,0.00,-RA,OVC,0.03,WeatherDisplay:10.37,2013-07-15 11:42:00,
2013-07-15 05:47:00,62.6,60.5,30.21,ENE,58,0.0,0.0,93,0.00,-RA,OVC,0.03,WeatherDisplay:10.37,2013-07-15 11:47:00,
2013-07-15 05:52:00,62.6,60.5,30.21,ENE,58,0.0,0.0,93,0.00,-RA,OVC,0.03,WeatherDisplay:10.37,2013-07-15 11:52:00,
2013-07-15 05:57:00,62.6,60.5,30.21,ENE,58,0.0,0.0,93,0.00,-RA,OVC,0.03,WeatherDisplay:10.37,2013-07-15 11:57:00,
2013-07-15 06:02:00,62.6,60.5,30.21,ENE,58,0.0,0.0,93,0.00,-RA,OVC,0.03,WeatherDisplay:10.37,2013-07-15 12:02:00,
2013-07-15 06:07:00,62.6,60.5,30.21,ENE,58,0.0,0.0,93,0.00,-RA,OVC,0.03,WeatherDisplay:10.37,2013-07-15 12:07:00,
2013-07-15 06:12:00,62.6,60.8,30.21,ENE,58,0.0,0.0,94,0.00,-RA,OVC,0.03,WeatherDisplay:10.37,2013-07-15 12:12:00,
2013-07-15 06:17:00,62.6,60.8,30.21,ENE,58,0.0,0.0,94,0.00,-RA,OVC,0.03,WeatherDisplay:10.37,2013-07-15 12:17:00,
2013-07-15 06:22:00,62.7,60.9,30.21,ENE,58,0.0,0.0,94,0.00,-RA,OVC,0.03,WeatherDisplay:10.37,2013-07-15 12:22:00,
2013-07-15 06:27:00,62.8,61.0,30.21,ENE,58,0.0,0.0,94,0.00,-RA,OVC,0.03,WeatherDisplay:10.37,2013-07-15 12:27:00,
2013-07-15 06:32:00,62.9,61.1,30.21,ENE,58,0.0,0.0,94,0.00,-RA,OVC,0.03,WeatherDisplay:10.37,2013-07-15 12:32:00,
2013-07-15 06:37:00,63.0,61.2,30.21,ENE,58,0.0,0.0,94,0.00,-RA,OVC,0.03,WeatherDisplay:10.37,2013-07-15 12:37:00,
2013-07-15 06:42:00,63.0,61.2,30.21,ENE,58,0.0,0.0,94,0.00,-RA,OVC,0.03,WeatherDisplay:10.37,2013-07-15 12:42:00,
2013-07-15 06:47:00,63.1,61.3,30.21,ENE,58,0.0,0.0,94,0.00,-RA,OVC,0.03,WeatherDisplay:10.37,2013-07-15 12:47:00,
2013-07-15 06:52:00,63.2,61.1,30.21,ENE,58,0.0,0.0,93,0.00,-RA,OVC,0.03,WeatherDisplay:10.37,2013-07-15 12:52:00,
2013-07-15 06:57:00,63.3,61.2,30.21,ENE,58,0.0,0.0,93,0.00,-RA,OVC,0.03,WeatherDisplay:10.37,2013-07-15 12:57:00,
2013-07-15 07:02:00,63.5,61.1,30.21,ENE,58,0.0,0.0,92,0.00,-RA,OVC,0.03,WeatherDisplay:10.37,2013-07-15 13:02:00,
2013-07-15 07:07:00,63.7,61.3,30.21,ENE,58,0.0,0.0,92,0.00,-RA,OVC,0.03,WeatherDisplay:10.37,2013-07-15 13:07:00,
2013-07-15 07:12:00,63.9,61.2,30.21,ENE,58,0.0,0.0,91,0.00,-RA,OVC,0.03,WeatherDisplay:10.37,2013-07-15 13:12:00,
2013-07-15 07:17:00,64.1,61.4,30.20,ENE,58,0.0,0.0,91,0.00,-RA,OVC,0.03,WeatherDisplay:10.37,2013-07-15 13:17:00,
2013-07-15 07:22:00,64.3,61.9,30.20,ENE,58,0.0,0.0,92,0.00,-RA,OVC,0.03,WeatherDisplay:10.37,2013-07-15 13:22:00,
2013-07-15 07:27:00,64.5,61.8,30.20,ENE,58,0.0,0.0,91,0.00,-RA,OVC,0.03,WeatherDisplay:10.37,2013-07-15 13:27:00,
2013-07-15 07:32:00,64.7,61.7,30.20,ENE,58,0.0,0.0,90,0.00,-RA,OVC,0.03,WeatherDisplay:10.37,2013-07-15 13:32:00,
2013-07-15 07:37:00,64.9,61.9,30.20,ENE,58,0.0,0.0,90,0.00,-RA,OVC,0.03,WeatherDisplay:10.37,2013-07-15 13:37:00,
2013-07-15 07:42:00,65.1,62.1,30.20,ESE,110,3.5,3.5,90,0.00,-RA,OVC,0.03,WeatherDisplay:10.37,2013-07-15 13:42:00,
2013-07-15 07:47:00,65.4,62.4,30.20,ESE,111,0.0,0.0,90,0.00,-RA,OVC,0.03,WeatherDisplay:10.37,2013-07-15 13:47:00,
2013-07-15 07:52:00,65.5,62.5,30.20,ESE,110,0.0,0.0,90,0.00,-RA,OVC,0.03,WeatherDisplay:10.37,2013-07-15 13:52:00,
2013-07-15 07:57:00,65.6,62.3,30.20,ESE,111,0.0,0.0,89,0.00,-RA,OVC,0.03,WeatherDisplay:10.37,2013-07-15 13:57:00,
2013-07-15 08:02:00,65.8,62.8,30.20,ESE,111,1.1,1.1,90,0.00,-RA,OVC,0.03,WeatherDisplay:10.37,2013-07-15 14:02:00,
2013-07-15 08:07:00,66.0,63.0,30.22,ESE,111,1.1,1.1,90,0.00,-RA,OVC,0.03,WeatherDisplay:10.37,2013-07-15 14:07:00,
2013-07-15 08:12:00,66.1,63.1,30.22,ESE,111,0.0,0.0,90,0.00,-RA,OVC,0.03,WeatherDisplay:10.37,2013-07-15 14:12:00,
2013-07-15 08:17:00,66.2,62.9,30.22,ESE,110,0.0,0.0,89,0.00,-RA,OVC,0.03,WeatherDisplay:10.37,2013-07-15 14:17:00,
2013-07-15 08:22:00,66.2,62.9,30.22,ESE,111,0.0,0.0,89,0.00,-RA,OVC,0.03,WeatherDisplay:10.37,2013-07-15 14:22:00,
2013-07-15 08:27:00,66.2,62.9,30.22,ESE,111,1.1,0.0,89,0.00,-RA,OVC,0.03,WeatherDisplay:10.37,2013-07-15 14:27:00,
2013-07-15 08:32:00,66.2,62.9,30.22,ESE,111,0.0,0.0,89,0.00,-RA,OVC,0.03,WeatherDisplay:10.37,2013-07-15 14:32:00,
2013-07-15 08:37:00,66.2,62.9,30.22,ESE,111,1.1,1.1,89,0.00,-RA,OVC,0.03,WeatherDisplay:10.37,2013-07-15 14:37:00,
2013-07-15 08:42:00,66.3,63.0,30.22,ESE,111,0.0,0.0,89,0.00,-RA,OVC,0.03,WeatherDisplay:10.37,2013-07-15 14:42:00,
2013-07-15 08:47:00,66.3,63.0,30.22,ESE,111,0.0,0.0,89,0.00,-RA,OVC,0.03,WeatherDisplay:10.37,2013-07-15 14:47:00,
2013-07-15 08:52:00,66.5,63.2,30.22,ESE,110,0.0,0.0,89,0.00,-RA,OVC,0.03,WeatherDisplay:10.37,2013-07-15 14:52:00,
2013-07-15 08:57:00,66.5,63.2,30.22,ESE,110,1.1,1.1,89,0.00,-RA,OVC,0.03,WeatherDisplay:10.37,2013-07-15 14:57:00,
2013-07-15 09:02:00,66.6,62.9,30.22,ESE,110,0.0,0.0,88,0.01,-RA,OVC,0.04,WeatherDisplay:10.37,2013-07-15 15:02:00,
2013-07-15 09:07:00,66.6,63.6,30.22,ESE,111,2.3,2.3,90,0.01,-RA,OVC,0.04,WeatherDisplay:10.37,2013-07-15 15:07:00,
2013-07-15 09:12:00,66.4,63.7,30.22,ESE,115,3.5,0.0,91,0.05,-RA,OVC,0.08,WeatherDisplay:10.37,2013-07-15 15:12:00,
2013-07-15 09:17:00,66.2,63.8,30.22,ESE,115,1.1,1.1,92,0.05,-RA,OVC,0.08,WeatherDisplay:10.37,2013-07-15 15:17:00,
2013-07-15 09:22:00,65.9,63.5,30.22,ESE,115,1.1,0.0,92,0.06,-RA,OVC,0.09,WeatherDisplay:10.37,2013-07-15 15:22:00,
2013-07-15 09:27:00,65.7,63.3,30.22,SE,130,2.0,2.0,92,0.08,-RA,OVC,0.14,WeatherDisplay:10.37,2013-07-15 15:27:00,
2013-07-15 09:33:00,64.9,62.2,30.22,South,172,3.0,3.0,91,0.41,-RA,OVC,0.44,WeatherDisplay:10.37,2013-07-15 15:33:00,
2013-07-15 09:38:00,64.1,61.7,30.22,SSE,164,3.5,3.5,92,0.56,-RA,OVC,0.61,WeatherDisplay:10.37,2013-07-15 15:38:00,
2013-07-15 09:43:00,63.4,60.7,30.22,ESE,117,2.3,0.0,91,0.68,-RA,OVC,0.73,WeatherDisplay:10.37,2013-07-15 15:43:00,
2013-07-15 09:49:00,62.9,60.2,30.22,ESE,117,3.5,3.5,91,0.71,-RA,OVC,0.74,WeatherDisplay:10.37,2013-07-15 15:49:00,
2013-07-15 09:54:00,62.9,60.8,30.22,ESE,117,0.0,0.0,93,0.71,-RA,OVC,0.74,WeatherDisplay:10.37,2013-07-15 15:54:00,
2013-07-15 10:00:00,63.4,61.9,30.22,ESE,117,1.1,1.1,95,0.71,-RA,OVC,0.74,WeatherDisplay:10.37,2013-07-15 16:00:00,
2013-07-15 10:05:00,64.0,62.5,30.22,ESE,117,1.1,0.0,95,0.70,-RA,OVC,0.74,WeatherDisplay:10.37,2013-07-15 16:05:00,
2013-07-15 10:10:00,64.8,63.6,30.22,ESE,117,3.5,3.5,96,0.67,-RA,OVC,0.74,WeatherDisplay:10.37,2013-07-15 16:10:00,
2013-07-15 10:15:00,65.7,64.5,30.21,ESE,120,1.1,1.1,96,0.66,-RA,OVC,0.74,WeatherDisplay:10.37,2013-07-15 16:15:00,
2013-07-15 10:20:00,66.5,65.3,30.21,ESE,121,1.1,1.1,96,0.66,-RA,OVC,0.74,WeatherDisplay:10.37,2013-07-15 16:20:00,
2013-07-15 10:26:00,67.2,65.1,30.21,ESE,115,0.0,0.0,93,0.64,-RA,OVC,0.74,WeatherDisplay:10.37,2013-07-15 16:26:00,
2013-07-15 10:32:00,68.1,65.4,30.21,ESE,109,3.0,3.0,91,0.42,-RA,OVC,0.74,WeatherDisplay:10.37,2013-07-15 16:32:00,
2013-07-15 10:37:00,69.0,65.3,30.21,ESE,109,2.3,2.3,88,0.22,-RA,OVC,0.74,WeatherDisplay:10.37,2013-07-15 16:37:00,
2013-07-15 10:42:00,70.1,64.3,30.21,ESE,111,1.1,1.1,82,0.04,-RA,OVC,0.74,WeatherDisplay:10.37,2013-07-15 16:42:00,
2013-07-15 10:47:00,70.5,65.1,30.21,ESE,109,0.0,0.0,83,0.00,-RA,OVC,0.74,WeatherDisplay:10.37,2013-07-15 16:47:00,
2013-07-15 10:52:00,71.0,64.9,30.21,ESE,109,3.5,3.5,81,0.00,-RA,OVC,0.74,WeatherDisplay:10.37,2013-07-15 16:52:00,
2013-07-15 10:57:00,71.6,65.8,30.21,ESE,109,1.1,0.0,82,0.00,-RA,OVC,0.74,WeatherDisplay:10.37,2013-07-15 16:57:00,
2013-07-15 11:03:00,72.7,65.1,30.21,ESE,113,1.1,1.4,77,0.00,-RA,OVC,0.74,WeatherDisplay:10.37,2013-07-15 17:03:00,
2013-07-15 11:08:00,73.2,64.8,30.21,ESE,113,1.1,1.1,75,0.00,-RA,OVC,0.74,WeatherDisplay:10.37,2013-07-15 17:08:00,
2013-07-15 11:13:00,73.4,65.0,30.21,ESE,113,1.1,0.0,75,0.00,-RA,OVC,0.74,WeatherDisplay:10.37,2013-07-15 17:13:00,
2013-07-15 11:19:00,73.4,62.6,30.21,ESE,113,2.3,2.3,69,0.00,-RA,OVC,0.74,WeatherDisplay:10.37,2013-07-15 17:19:00,
2013-07-15 11:24:00,73.3,63.7,30.21,ESE,113,0.0,0.0,72,0.00,-RA,OVC,0.74,WeatherDisplay:10.37,2013-07-15 17:24:00,
2013-07-15 11:30:00,73.2,63.6,30.21,ESE,113,0.0,0.0,72,0.01,-RA,OVC,0.75,WeatherDisplay:10.37,2013-07-15 17:30:00,
2013-07-15 11:35:00,73.3,64.5,30.21,ESE,113,0.0,0.0,74,0.01,-RA,OVC,0.75,WeatherDisplay:10.37,2013-07-15 17:35:00,
2013-07-15 11:40:00,73.3,63.7,30.21,ESE,113,0.0,0.0,72,0.01,-RA,OVC,0.75,WeatherDisplay:10.37,2013-07-15 17:40:00,
2013-07-15 11:46:00,73.3,62.9,30.21,ESE,113,1.1,1.1,70,0.01,-RA,OVC,0.75,WeatherDisplay:10.37,2013-07-15 17:46:00,
2013-07-15 11:51:00,73.5,63.5,30.21,East,98,1.1,1.7,71,0.01,-RA,OVC,0.75,WeatherDisplay:10.37,2013-07-15 17:51:00,
2013-07-15 11:56:00,73.7,63.3,30.21,East,98,1.1,1.1,70,0.01,-RA,OVC,0.75,WeatherDisplay:10.37,2013-07-15 17:56:00,
2013-07-15 12:01:00,74.2,62.5,30.21,East,96,1.1,0.0,67,0.01,-RA,OVC,0.75,WeatherDisplay:10.37,2013-07-15 18:01:00,
2013-07-15 12:06:00,74.5,62.8,30.21,East,99,0.0,0.0,67,0.01,-RA,OVC,0.75,WeatherDisplay:10.37,2013-07-15 18:06:00,
2013-07-15 12:11:00,75.6,64.3,30.21,ESE,103,1.1,1.1,68,0.01,-RA,OVC,0.75,WeatherDisplay:10.37,2013-07-15 18:11:00,
2013-07-15 12:16:00,76.4,62.4,30.21,ESE,103,0.0,0.0,62,0.01,-RA,OVC,0.75,WeatherDisplay:10.37,2013-07-15 18:16:00,
2013-07-15 12:21:00,76.7,64.0,30.21,ESE,102,1.1,1.1,65,0.01,-RA,OVC,0.75,WeatherDisplay:10.37,2013-07-15 18:21:00,
2013-07-15 12:26:00,76.7,63.6,30.21,ESE,103,0.0,0.0,64,0.00,-RA,OVC,0.75,WeatherDisplay:10.37,2013-07-15 18:26:00,
2013-07-15 12:31:00,76.8,62.8,30.21,ESE,103,3.5,3.5,62,0.00,-RA,OVC,0.75,WeatherDisplay:10.37,2013-07-15 18:31:00,
2013-07-15 12:36:00,76.9,63.8,30.21,East,99,0.0,0.0,64,0.00,-RA,OVC,0.75,WeatherDisplay:10.37,2013-07-15 18:36:00,
2013-07-15 12:42:00,77.0,64.3,30.21,ESE,103,1.1,1.1,65,0.00,-RA,OVC,0.75,WeatherDisplay:10.37,2013-07-15 18:42:00,
2013-07-15 12:47:00,77.0,63.9,30.21,ESE,103,0.0,0.0,64,0.00,-RA,OVC,0.75,WeatherDisplay:10.37,2013-07-15 18:47:00,
2013-07-15 12:52:00,76.9,63.3,30.21,ESE,104,2.3,2.3,63,0.00,-RA,OVC,0.75,WeatherDisplay:10.37,2013-07-15 18:52:00,
2013-07-15 12:57:00,76.4,63.3,30.21,West,266,5.8,5.8,64,0.00,-RA,OVC,0.75,WeatherDisplay:10.37,2013-07-15 18:57:00,
2013-07-15 13:02:00,74.1,62.9,30.21,West,272,11.5,11.5,68,0.00,-RA,OVC,0.75,WeatherDisplay:10.37,2013-07-15 19:02:00,
2013-07-15 13:07:00,72.1,62.6,30.21,WSW,255,6.9,6.9,72,0.00,-RA,OVC,0.75,WeatherDisplay:10.37,2013-07-15 19:07:00,
2013-07-15 13:12:00,70.8,62.1,30.21,NNE,21,12.7,12.7,74,0.00,-RA,OVC,0.75,WeatherDisplay:10.37,2013-07-15 19:12:00,
2013-07-15 13:18:00,70.0,62.1,30.21,NNE,15,13.8,13.8,76,0.00,-RA,OVC,0.75,WeatherDisplay:10.37,2013-07-15 19:18:00,
2013-07-15 13:23:00,69.1,61.9,30.21,SW,236,6.9,6.9,78,0.00,-RA,OVC,0.75,WeatherDisplay:10.37,2013-07-15 19:23:00,
2013-07-15 13:28:00,68.4,62.0,30.21,North,355,9.2,9.2,80,0.00,-RA,OVC,0.75,WeatherDisplay:10.37,2013-07-15 19:28:00,
2013-07-15 13:33:00,68.0,62.3,30.21,NNW,337,3.5,4.8,82,0.00,-RA,OVC,0.75,WeatherDisplay:10.37,2013-07-15 19:33:00,
2013-07-15 13:39:00,67.9,61.9,30.21,NNW,327,11.5,11.5,81,0.00,-RA,OVC,0.75,WeatherDisplay:10.37,2013-07-15 19:39:00,
2013-07-15 13:44:00,67.9,61.9,30.21,North,360,10.0,10.0,81,0.00,-RA,OVC,0.75,WeatherDisplay:10.37,2013-07-15 19:44:00,
2013-07-15 13:49:00,68.0,61.9,30.21,NNW,344,3.0,3.0,81,0.00,-RA,OVC,0.75,WeatherDisplay:10.37,2013-07-15 19:49:00,
2013-07-15 13:54:00,68.1,61.0,30.21,NNE,24,2.3,3.7,78,0.00,-RA,OVC,0.75,WeatherDisplay:10.37,2013-07-15 19:54:00,
2013-07-15 14:00:00,67.8,60.7,30.21,NNE,33,6.0,6.0,78,0.00,-RA,OVC,0.75,WeatherDisplay:10.37,2013-07-15 20:00:00,
2013-07-15 14:06:00,67.4,61.0,30.21,NNE,25,4.6,4.6,80,0.00,-RA,OVC,0.75,WeatherDisplay:10.37,2013-07-15 20:06:00,
2013-07-15 14:11:00,67.2,60.8,30.21,NNE,28,5.8,5.8,80,0.00,-RA,OVC,0.75,WeatherDisplay:10.37,2013-07-15 20:11:00,
2013-07-15 14:16:00,67.2,61.2,30.21,NNE,28,5.8,5.8,81,0.00,-RA,OVC,0.75,WeatherDisplay:10.37,2013-07-15 20:16:00,
2013-07-15 14:21:00,67.3,60.9,30.21,NE,52,3.5,3.5,80,0.00,-RA,OVC,0.75,WeatherDisplay:10.37,2013-07-15 20:21:00,
2013-07-15 14:26:00,67.4,60.7,30.21,NE,34,4.6,4.6,79,0.00,-RA,OVC,0.75,WeatherDisplay:10.37,2013-07-15 20:26:00,
2013-07-15 14:31:00,67.4,60.7,30.21,NNE,16,10.4,10.4,79,0.00,-RA,OVC,0.75,WeatherDisplay:10.37,2013-07-15 20:31:00,
2013-07-15 14:37:00,67.3,60.6,30.21,NE,42,5.8,5.8,79,0.00,-RA,OVC,0.75,WeatherDisplay:10.37,2013-07-15 20:37:00,
2013-07-15 14:42:00,67.4,60.7,30.21,North,10,1.1,1.1,79,0.00,-RA,OVC,0.75,WeatherDisplay:10.37,2013-07-15 20:42:00,
2013-07-15 14:47:00,67.5,60.8,30.21,NNE,24,0.0,0.0,79,0.00,-RA,OVC,0.75,WeatherDisplay:10.37,2013-07-15 20:47:00,
2013-07-15 14:53:00,67.6,60.9,30.21,NNE,23,3.5,3.5,79,0.00,-RA,OVC,0.75,WeatherDisplay:10.37,2013-07-15 20:53:00,
2013-07-15 14:59:00,67.8,61.0,30.21,NNE,18,3.5,3.5,79,0.00,-RA,OVC,0.75,WeatherDisplay:10.37,2013-07-15 20:59:00,
2013-07-15 15:04:00,68.0,60.9,30.21,NNE,13,4.6,4.6,78,0.00,-RA,OVC,0.75,WeatherDisplay:10.37,2013-07-15 21:04:00,
2013-07-15 15:09:00,68.2,60.7,30.21,NE,34,2.0,2.0,77,0.00,-RA,OVC,0.75,WeatherDisplay:10.37,2013-07-15 21:09:00,
2013-07-15 15:14:00,68.3,59.3,30.21,NNE,13,8.1,8.1,73,0.00,-RA,OVC,0.75,WeatherDisplay:10.37,2013-07-15 21:14:00,
2013-07-15 15:19:00,68.4,59.4,30.21,NNE,24,5.8,5.8,73,0.00,-RA,OVC,0.75,WeatherDisplay:10.37,2013-07-15 21:19:00,
2013-07-15 15:24:00,68.6,59.6,30.21,North,5,4.6,4.6,73,0.00,-RA,OVC,0.75,WeatherDisplay:10.37,2013-07-15 21:24:00,
2013-07-15 15:29:00,69.1,59.7,30.21,NE,34,5.0,5.0,72,0.00,-RA,OVC,0.75,WeatherDisplay:10.37,2013-07-15 21:29:00,
2013-07-15 15:34:00,69.8,60.0,30.21,NNE,24,5.8,5.8,71,0.00,-RA,OVC,0.75,WeatherDisplay:10.37,2013-07-15 21:34:00,
2013-07-15 15:39:00,70.4,60.1,30.21,NNE,28,5.8,5.8,70,0.00,-RA,OVC,0.75,WeatherDisplay:10.37,2013-07-15 21:39:00,
2013-07-15 15:45:00,71.3,60.2,30.21,NE,49,6.9,6.9,68,0.00,-RA,OVC,0.75,WeatherDisplay:10.37,2013-07-15 21:45:00,
2013-07-15 15:50:00,71.6,58.8,30.21,North,355,6.9,6.9,64,0.00,-RA,OVC,0.75,WeatherDisplay:10.37,2013-07-15 21:50:00,
2013-07-15 15:55:00,71.6,59.6,30.21,ENE,58,11.5,11.5,66,0.00,-RA,OVC,0.75,WeatherDisplay:10.37,2013-07-15 21:55:00,
2013-07-15 16:00:00,71.6,59.2,30.21,ENE,69,6.9,6.9,65,0.00,-RA,OVC,0.75,WeatherDisplay:10.37,2013-07-15 22:00:00,
2013-07-15 16:05:00,71.7,59.3,30.21,NE,49,3.5,3.5,65,0.00,-RA,OVC,0.75,WeatherDisplay:10.37,2013-07-15 22:05:00,
2013-07-15 16:10:00,72.1,58.8,30.21,NNE,30,3.5,3.5,63,0.00,-RA,OVC,0.75,WeatherDisplay:10.37,2013-07-15 22:10:00,
2013-07-15 16:16:00,72.6,58.8,30.21,NE,41,3.5,3.5,62,0.00,-RA,OVC,0.75,WeatherDisplay:10.37,2013-07-15 22:16:00,
2013-07-15 16:21:00,73.0,59.7,30.21,NNE,21,10.4,10.4,63,0.00,-RA,OVC,0.75,WeatherDisplay:10.37,2013-07-15 22:21:00,
2013-07-15 16:26:00,72.9,59.6,30.21,NNE,30,4.6,4.6,63,0.00,-RA,OVC,0.75,WeatherDisplay:10.37,2013-07-15 22:26:00,
2013-07-15 16:31:00,73.0,59.2,30.21,NNE,24,4.6,4.6,62,0.00,-RA,OVC,0.75,WeatherDisplay:10.37,2013-07-15 22:31:00,
2013-07-15 16:36:00,73.0,58.8,30.17,NNE,32,6.0,6.0,61,0.00,-RA,OVC,0.75,WeatherDisplay:10.37,2013-07-15 22:36:00,
2013-07-15 16:42:00,73.1,59.3,30.17,NE,42,5.8,5.8,62,0.00,-RA,OVC,0.75,WeatherDisplay:10.37,2013-07-15 22:42:00,
2013-07-15 16:47:00,73.0,57.8,30.17,West,267,8.1,8.1,59,0.00,-RA,OVC,0.75,WeatherDisplay:10.37,2013-07-15 22:47:00,
2013-07-15 16:53:00,73.0,58.3,30.17,NE,36,4.6,4.6,60,0.00,-RA,OVC,0.75,WeatherDisplay:10.37,2013-07-15 22:53:00,
2013-07-15 16:58:00,73.1,59.3,30.17,NE,53,6.0,6.0,62,0.00,-RA,OVC,0.75,WeatherDisplay:10.37,2013-07-15 22:58:00,
2013-07-15 17:03:00,73.2,58.5,30.15,North,5,6.9,6.9,60,0.00,-RA,OVC,0.75,WeatherDisplay:10.37,2013-07-15 23:03:00,
2013-07-15 17:08:00,73.2,58.0,30.15,NNE,29,3.5,3.5,59,0.00,-RA,OVC,0.75,WeatherDisplay:10.37,2013-07-15 23:08:00,
2013-07-15 17:15:00,73.3,58.6,30.15,NNE,33,2.3,2.3,60,0.00,-RA,OVC,0.75,WeatherDisplay:10.37,2013-07-15 23:15:00,
2013-07-15 17:21:00,73.4,57.7,30.15,NE,36,5.8,5.8,58,0.00,-RA,OVC,0.75,WeatherDisplay:10.37,2013-07-15 23:21:00,
2013-07-15 17:26:00,73.6,56.9,30.15,NE,34,4.6,4.6,56,0.00,-RA,OVC,0.75,WeatherDisplay:10.37,2013-07-15 23:26:00,
2013-07-15 17:31:00,73.7,56.0,30.15,North,349,3.5,3.5,54,0.00,-RA,OVC,0.75,WeatherDisplay:10.37,2013-07-15 23:31:00,
2013-07-15 17:36:00,73.6,56.4,30.15,NE,50,4.6,4.6,55,0.00,-RA,OVC,0.75,WeatherDisplay:10.37,2013-07-15 23:36:00,
2013-07-15 17:41:00,73.4,56.7,30.15,NE,43,3.5,3.5,56,0.00,-RA,OVC,0.75,WeatherDisplay:10.37,2013-07-15 23:41:00,
2013-07-15 17:46:00,73.5,56.8,30.15,NE,44,3.5,3.5,56,0.00,-RA,OVC,0.75,WeatherDisplay:10.37,2013-07-15 23:46:00,
2013-07-15 17:51:00,73.6,57.4,30.15,NE,44,3.5,0.0,57,0.00,-RA,OVC,0.75,WeatherDisplay:10.37,2013-07-15 23:51:00,
2013-07-15 17:57:00,73.7,57.0,30.15,NE,44,1.1,1.1,56,0.00,-RA,OVC,0.75,WeatherDisplay:10.37,2013-07-15 23:57:00,
2013-07-15 18:02:00,73.9,57.2,30.15,NE,44,2.3,2.3,56,0.00,-RA,OVC,0.75,WeatherDisplay:10.37,2013-07-16 00:02:00,
2013-07-15 18:07:00,73.9,56.7,30.14,NE,41,3.5,3.5,55,0.00,-RA,OVC,0.75,WeatherDisplay:10.37,2013-07-16 00:07:00,
2013-07-15 18:12:00,74.1,56.9,30.14,NE,38,5.0,5.0,55,0.00,-RA,OVC,0.75,WeatherDisplay:10.37,2013-07-16 00:12:00,
2013-07-15 18:17:00,74.3,56.1,30.14,NE,36,6.9,6.9,53,0.00,-RA,OVC,0.75,WeatherDisplay:10.37,2013-07-16 00:17:00,
2013-07-15 18:23:00,74.4,57.2,30.14,NE,34,1.1,1.1,55,0.00,-RA,OVC,0.75,WeatherDisplay:10.37,2013-07-16 00:23:00,
2013-07-15 18:28:00,74.7,57.5,30.14,NNW,338,5.8,5.8,55,0.00,-RA,OVC,0.75,WeatherDisplay:10.37,2013-07-16 00:28:00,
2013-07-15 18:33:00,74.6,56.9,30.14,NNE,12,3.5,3.5,54,0.00,-RA,OVC,0.75,WeatherDisplay:10.37,2013-07-16 00:33:00,
2013-07-15 18:38:00,74.2,56.5,30.14,NNW,333,3.5,3.5,54,0.00,-RA,OVC,0.75,WeatherDisplay:10.37,2013-07-16 00:38:00,
2013-07-15 18:43:00,73.9,56.7,30.14,North,350,5.8,5.8,55,0.00,-RA,OVC,0.75,WeatherDisplay:10.37,2013-07-16 00:43:00,
2013-07-15 18:48:00,73.6,56.9,30.14,NNW,337,3.5,3.5,56,0.00,-RA,OVC,0.75,WeatherDisplay:10.37,2013-07-16 00:48:00,
2013-07-15 18:53:00,73.3,56.7,30.14,NNW,337,3.5,3.5,56,0.00,-RA,OVC,0.75,WeatherDisplay:10.37,2013-07-16 00:53:00,
2013-07-15 18:59:00,73.1,56.5,30.14,NNW,337,2.3,2.3,56,0.00,-RA,OVC,0.75,WeatherDisplay:10.37,2013-07-16 00:59:00,
2013-07-15 19:04:00,72.7,56.6,30.14,NNW,337,0.0,0.0,57,0.00,-RA,OVC,0.75,WeatherDisplay:10.37,2013-07-16 01:04:00,
2013-07-15 19:09:00,72.5,56.9,30.14,NNW,337,2.3,0.0,58,0.00,-RA,OVC,0.75,WeatherDisplay:10.37,2013-07-16 01:09:00,
2013-07-15 19:14:00,72.2,56.1,30.14,NNW,337,3.5,3.5,57,0.00,-RA,OVC,0.75,WeatherDisplay:10.37,2013-07-16 01:14:00,
2013-07-15 19:19:00,72.0,56.4,30.14,NNW,337,1.1,1.1,58,0.00,-RA,OVC,0.75,WeatherDisplay:10.37,2013-07-16 01:19:00,
2013-07-15 19:24:00,71.8,55.7,30.14,NNW,337,0.0,0.0,57,0.00,-RA,OVC,0.75,WeatherDisplay:10.37,2013-07-16 01:24:00,
2013-07-15 19:30:00,71.7,56.1,30.14,NNW,337,0.0,0.0,58,0.00,-RA,OVC,0.75,WeatherDisplay:10.37,2013-07-16 01:30:00,
2013-07-15 19:35:00,71.5,56.4,30.14,NNW,337,0.0,0.0,59,0.00,-RA,OVC,0.75,WeatherDisplay:10.37,2013-07-16 01:35:00,
2013-07-15 19:40:00,71.4,56.3,30.14,NNW,337,0.0,0.0,59,0.00,-RA,OVC,0.75,WeatherDisplay:10.37,2013-07-16 01:40:00,
2013-07-15 19:45:00,71.1,56.5,30.14,NNW,337,0.0,0.0,60,0.00,-RA,OVC,0.75,WeatherDisplay:10.37,2013-07-16 01:45:00,
2013-07-15 19:50:00,70.9,55.9,30.14,NNW,337,0.0,0.0,59,0.00,-RA,OVC,0.75,WeatherDisplay:10.37,2013-07-16 01:50:00,
2013-07-15 19:56:00,70.6,55.6,30.14,NNW,337,0.0,0.0,59,0.00,-RA,OVC,0.75,WeatherDisplay:10.37,2013-07-16 01:56:00,
2013-07-15 20:01:00,70.3,55.3,30.14,NNW,337,3.5,3.5,59,0.00,-RA,OVC,0.75,WeatherDisplay:10.37,2013-07-16 02:01:00,
2013-07-15 20:06:00,69.9,54.9,30.14,NNW,337,0.0,0.0,59,0.00,-RA,OVC,0.75,WeatherDisplay:10.37,2013-07-16 02:06:00,
2013-07-15 20:11:00,69.7,54.7,30.14,NNW,337,0.0,0.0,59,0.00,-RA,OVC,0.75,WeatherDisplay:10.37,2013-07-16 02:11:00,
2013-07-15 20:16:00,69.4,54.4,30.14,NNW,337,1.1,0.0,59,0.00,-RA,OVC,0.75,WeatherDisplay:10.37,2013-07-16 02:16:00,
2013-07-15 20:21:00,69.0,53.6,30.14,NNW,337,0.0,0.0,58,0.00,-RA,OVC,0.75,WeatherDisplay:10.37,2013-07-16 02:21:00,
2013-07-15 20:27:00,68.7,53.3,30.15,NNW,337,0.0,0.0,58,0.00,-RA,OVC,0.75,WeatherDisplay:10.37,2013-07-16 02:27:00,
2013-07-15 20:33:00,68.5,53.1,30.15,NNW,336,1.1,0.0,58,0.00,-RA,OVC,0.75,WeatherDisplay:10.37,2013-07-16 02:33:00,
2013-07-15 20:38:00,68.3,52.5,30.16,NNW,338,0.0,0.0,57,0.00,-RA,OVC,0.75,WeatherDisplay:10.37,2013-07-16 02:38:00,
2013-07-15 20:43:00,68.2,52.4,30.16,North,355,4.6,4.6,57,0.00,-RA,OVC,0.75,WeatherDisplay:10.37,2013-07-16 02:43:00,
2013-07-15 20:48:00,68.1,52.8,30.16,North,350,0.0,0.3,58,0.00,-RA,OVC,0.75,WeatherDisplay:10.37,2013-07-16 02:48:00,
2013-07-15 20:54:00,68.1,52.8,30.16,North,350,0.0,0.3,58,0.00,-RA,OVC,0.75,WeatherDisplay:10.37,2013-07-16 02:54:00,
2013-07-15 20:59:00,67.9,52.6,30.16,North,355,5.8,5.8,58,0.00,-RA,OVC,0.75,WeatherDisplay:10.37,2013-07-16 02:59:00,
2013-07-15 21:04:00,67.8,52.0,30.16,North,355,3.5,3.5,57,0.00,-RA,OVC,0.75,WeatherDisplay:10.37,2013-07-16 03:04:00,
2013-07-15 21:09:00,67.7,52.4,30.16,North,5,0.0,0.0,58,0.00,-RA,OVC,0.75,WeatherDisplay:10.37,2013-07-16 03:09:00,
2013-07-15 21:14:00,67.6,52.3,30.16,North,5,1.1,0.0,58,0.00,-RA,OVC,0.75,WeatherDisplay:10.37,2013-07-16 03:14:00,
2013-07-15 21:19:00,67.5,52.2,30.16,North,5,1.1,1.1,58,0.00,-RA,OVC,0.75,WeatherDisplay:10.37,2013-07-16 03:19:00,
2013-07-15 21:24:00,67.3,52.0,30.16,North,5,2.3,2.3,58,0.00,-RA,OVC,0.75,WeatherDisplay:10.37,2013-07-16 03:24:00,
2013-07-15 21:29:00,67.2,51.9,30.16,North,5,0.0,0.0,58,0.00,-RA,OVC,0.75,WeatherDisplay:10.37,2013-07-16 03:29:00,
2013-07-15 21:34:00,67.0,52.2,30.16,North,5,1.1,1.1,59,0.00,-RA,OVC,0.75,WeatherDisplay:10.37,2013-07-16 03:34:00,
2013-07-15 21:40:00,66.8,52.5,30.16,North,5,0.0,0.0,60,0.00,-RA,OVC,0.75,WeatherDisplay:10.37,2013-07-16 03:40:00,
2013-07-15 21:45:00,66.6,52.7,30.16,North,9,4.6,4.6,61,0.00,-RA,OVC,0.75,WeatherDisplay:10.37,2013-07-16 03:45:00,
2013-07-15 21:50:00,66.5,52.6,30.16,North,9,0.0,0.0,61,0.00,-RA,OVC,0.75,WeatherDisplay:10.37,2013-07-16 03:50:00,
2013-07-15 21:55:00,66.3,52.0,30.16,NNE,33,6.9,6.9,60,0.00,-RA,OVC,0.75,WeatherDisplay:10.37,2013-07-16 03:55:00,
2013-07-15 22:01:00,66.3,52.4,30.16,NNE,33,1.0,0.0,61,0.00,-RA,OVC,0.75,WeatherDisplay:10.37,2013-07-16 04:01:00,
2013-07-15 22:06:00,66.2,52.8,30.16,NNE,33,1.1,0.0,62,0.00,-RA,OVC,0.75,WeatherDisplay:10.37,2013-07-16 04:06:00,
2013-07-15 22:11:00,65.9,52.5,30.16,NNE,33,0.0,0.0,62,0.00,-RA,OVC,0.75,WeatherDisplay:10.37,2013-07-16 04:11:00,
2013-07-15 22:16:00,65.6,52.2,30.16,NNE,33,3.5,3.5,62,0.00,-RA,OVC,0.75,WeatherDisplay:10.37,2013-07-16 04:16:00,
2013-07-15 22:21:00,65.5,52.1,30.16,NNE,33,1.1,0.0,62,0.00,-RA,OVC,0.75,WeatherDisplay:10.37,2013-07-16 04:21:00,
2013-07-15 22:26:00,65.3,52.4,30.16,NNE,33,3.5,3.5,63,0.00,-RA,OVC,0.75,WeatherDisplay:10.37,2013-07-16 04:26:00,
2013-07-15 22:31:00,65.2,52.3,30.16,NNE,33,1.1,1.1,63,0.00,-RA,OVC,0.75,WeatherDisplay:10.37,2013-07-16 04:31:00,
2013-07-15 22:36:00,65.0,52.5,30.16,NNE,33,1.1,1.1,64,0.00,-RA,OVC,0.75,WeatherDisplay:10.37,2013-07-16 04:36:00,
2013-07-15 22:41:00,64.8,52.3,30.16,NNE,33,0.0,0.0,64,0.00,-RA,OVC,0.75,WeatherDisplay:10.37,2013-07-16 04:41:00,
2013-07-15 22:46:00,64.6,51.7,30.16,NNE,33,0.0,0.2,63,0.00,-RA,OVC,0.75,WeatherDisplay:10.37,2013-07-16 04:46:00,
2013-07-15 22:51:00,64.4,51.1,30.16,NE,34,4.6,4.6,62,0.00,-RA,OVC,0.75,WeatherDisplay:10.37,2013-07-16 04:51:00,
2013-07-15 22:56:00,64.4,51.1,30.16,NE,34,2.3,2.3,62,0.00,-RA,OVC,0.75,WeatherDisplay:10.37,2013-07-16 04:56:00,
2013-07-15 23:01:00,64.3,51.0,30.16,NE,34,3.0,3.0,62,0.00,-RA,OVC,0.75,WeatherDisplay:10.37,2013-07-16 05:01:00,
2013-07-15 23:06:00,64.3,51.0,30.16,NE,34,0.0,0.0,62,0.00,-RA,OVC,0.75,WeatherDisplay:10.37,2013-07-16 05:06:00,
2013-07-15 23:11:00,64.1,50.8,30.16,NE,34,2.0,2.0,62,0.00,-RA,OVC,0.75,WeatherDisplay:10.37,2013-07-16 05:11:00,
2013-07-15 23:16:00,63.9,50.6,30.16,NE,34,0.0,0.0,62,0.00,-RA,OVC,0.75,WeatherDisplay:10.37,2013-07-16 05:16:00,
2013-07-15 23:21:00,63.7,50.9,30.16,NE,34,2.3,0.0,63,0.00,-RA,OVC,0.75,WeatherDisplay:10.37,2013-07-16 05:21:00,
2013-07-15 23:26:00,63.5,50.7,30.16,NE,34,0.0,0.0,63,0.00,-RA,OVC,0.75,WeatherDisplay:10.37,2013-07-16 05:26:00,
2013-07-15 23:31:00,63.2,50.4,30.16,NE,34,2.3,2.3,63,0.00,-RA,OVC,0.75,WeatherDisplay:10.37,2013-07-16 05:31:00,
2013-07-15 23:36:00,63.1,50.7,30.16,NE,34,0.0,0.0,64,0.00,-RA,OVC,0.75,WeatherDisplay:10.37,2013-07-16 05:36:00,
2013-07-15 23:41:00,62.9,50.1,30.16,NE,34,2.3,0.0,63,0.00,-RA,OVC,0.75,WeatherDisplay:10.37,2013-07-16 05:41:00,
2013-07-15 23:46:00,62.7,50.3,30.16,NE,34,0.0,0.0,64,0.00,-RA,OVC,0.75,WeatherDisplay:10.37,2013-07-16 05:46:00,
2013-07-15 23:51:00,62.4,50.5,30.16,NE,34,0.0,0.0,65,0.00,-RA,OVC,0.75,WeatherDisplay:10.37,2013-07-16 05:51:00,
2013-07-15 23:56:00,62.2,50.3,30.16,NE,34,0.0,0.0,65,0.00,-RA,OVC,0.75,WeatherDisplay:10.37,2013-07-16 05:56:00,